Truckee-Tahoe, CA

2:41 AM PDT on June 24, 2017 (GMT -0700)
Truckee-Tahoe

Weather History for KTRK - May, 2014

Change the Weather History Date:

Thursday, May 22, 2014

  Actual Average Record
Temperature  
Mean Temperature 50 °F -  
Max Temperature 64 °F 65 °F 82 °F (2000)
Min Temperature 35 °F 32 °F 19 °F (1960)
Degree Days  
Heating Degree Days 16    
Moisture  
Dew Point 35 °F    
Average Humidity 71    
Maximum Humidity 100    
Minimum Humidity 30    
Precipitation  
Precipitation 0.00 in - - ()
Sea Level Pressure  
Sea Level Pressure 30.13 in    
Wind  
Wind Speed 2 mph (SSE)    
Max Wind Speed 12 mph    
Max Gust Speed 28 mph    
Visibility 10 miles    
Events Rain , Thunderstorm    
Averages and records for this station are not official NWS values.
T = Trace of Precipitation, MM = Missing Value Source: NWS Daily Summary

Daily Weather History Graph

Daily Weather History Graph

Search for Another Location

Airport or City:

Trip Planner

Search our weather history database for the weather conditions in past years. The results will help you decide how hot, cold, wet, or windy it might be!

Date:

Astronomy

May. 22, 2014 Rise Set
Actual Time 5:41 AM PDT 8:13 PM PDT
Civil Twilight 5:10 AM PDT 8:44 PM PDT
Nautical Twilight 4:32 AM PDT 9:23 PM PDT
Astronomical Twilight 3:49 AM PDT 10:06 PM PDT
Moon 2:01 AM PDT (5/22) 2:08 PM PDT (5/22)
Length of Visible Light 15h 34m
Length of Day
14h 32m
Last Quarter, 36% of the Moon is Illuminated
May 22
Last Quarter
May 28
New
Jun 5
First Quarter
Jun 12
Full
Jun 19
Last Quarter

Hourly Weather History & Observations

Time (PDT) Temp. Windchill Dew Point Humidity Pressure Visibility Wind Dir Wind Speed Gust Speed Precip Events Conditions
12:15 AM 39.2 °F - 37.4 °F 93% 30.08 in 10.0 mi Calm Calm - N/A   Mostly Cloudy
12:35 AM 41.0 °F - 37.4 °F 87% 30.08 in 10.0 mi Calm Calm - N/A   Mostly Cloudy
12:55 AM 41.0 °F - 37.4 °F 87% 30.08 in 10.0 mi Calm Calm - N/A   Scattered Clouds
1:15 AM 37.4 °F - 35.6 °F 93% 30.08 in 10.0 mi Calm Calm - N/A   Scattered Clouds
1:35 AM 35.6 °F - 35.6 °F 100% 30.09 in 1.2 mi Calm Calm - N/A   Overcast
1:55 AM 37.4 °F - 37.4 °F 100% 30.08 in 10.0 mi Calm Calm - N/A   Overcast
2:15 AM 37.4 °F 34.9 °F 37.4 °F 100% 30.08 in 10.0 mi WSW 3.5 mph - N/A   Light Drizzle
2:35 AM 37.4 °F - 37.4 °F 100% 30.08 in 10.0 mi Calm Calm - N/A   Overcast
2:55 AM 37.4 °F - 37.4 °F 100% 30.08 in 10.0 mi Calm Calm - N/A Rain Light Rain
3:15 AM 37.4 °F - 37.4 °F 100% 30.07 in 10.0 mi Calm Calm - N/A   Overcast
3:35 AM 37.4 °F - 37.4 °F 100% 30.07 in 10.0 mi Calm Calm - N/A   Mostly Cloudy
3:55 AM 37.4 °F - 37.4 °F 100% 30.08 in 10.0 mi Calm Calm - N/A   Mostly Cloudy
4:15 AM 37.4 °F - 37.4 °F 100% 30.08 in 10.0 mi Calm Calm - N/A   Overcast
4:35 AM 37.4 °F - 37.4 °F 100% 30.07 in 10.0 mi Calm Calm - N/A   Mostly Cloudy
4:55 AM 35.6 °F - 35.6 °F 100% 30.07 in 2.0 mi Calm Calm - N/A   Mostly Cloudy
5:15 AM 37.4 °F 33.8 °F 37.4 °F 100% 30.07 in 7.0 mi NW 4.6 mph - N/A   Drizzle
5:35 AM 37.4 °F 33.8 °F 37.4 °F 100% 30.07 in 10.0 mi South 4.6 mph - N/A   Mostly Cloudy
5:55 AM 37.4 °F - 37.4 °F 100% 30.08 in 10.0 mi Calm Calm - N/A   Overcast
6:15 AM 39.2 °F 35.9 °F 37.4 °F 93% 30.08 in 10.0 mi WSW 4.6 mph - N/A   Overcast
6:35 AM 41.0 °F - 37.4 °F 87% 30.09 in 10.0 mi Calm Calm - N/A   Mostly Cloudy
6:55 AM 42.8 °F 39.3 °F 39.2 °F 87% 30.09 in 10.0 mi North 5.8 mph - N/A   Scattered Clouds
7:55 AM 48.2 °F - 37.4 °F 66% 30.11 in 10.0 mi NNW 3.5 mph - N/A   Scattered Clouds
8:50 AM 50.0 °F - 37.4 °F 62% 30.11 in 10.0 mi Calm Calm - N/A   Scattered Clouds
9:50 AM 51.8 °F - 37.4 °F 58% 30.13 in 10.0 mi Calm Calm - N/A   Scattered Clouds
10:55 AM 55.4 °F - 37.4 °F 51% 30.13 in 10.0 mi SSW 9.2 mph - N/A   Scattered Clouds
11:50 AM 55.4 °F - 33.8 °F 44% 30.14 in 10.0 mi Calm Calm - N/A   Scattered Clouds
12:50 PM 57.2 °F - 35.6 °F 44% 30.15 in 10.0 mi SSE 11.5 mph - N/A   Scattered Clouds
1:45 PM 60.8 °F - 37.4 °F 42% 30.15 in 10.0 mi East 8.1 mph 27.6 mph N/A   Scattered Clouds
2:45 PM 62.6 °F - 30.2 °F 30% 30.14 in 10.0 mi NE 11.5 mph 17.3 mph N/A   Scattered Clouds
3:55 PM 62.6 °F - 33.8 °F 34% 30.13 in 10.0 mi East 5.8 mph - N/A   Scattered Clouds
4:50 PM 64.4 °F - 32.0 °F 30% 30.12 in 10.0 mi SSE 3.5 mph - N/A   Partly Cloudy
5:45 PM 64.4 °F - 32.0 °F 30% 30.13 in 10.0 mi WSW 3.5 mph - N/A   Partly Cloudy
6:15 PM 62.6 °F - 32.0 °F 32% 30.13 in 10.0 mi SSE 4.6 mph - N/A   Clear
6:35 PM 62.6 °F - 32.0 °F 32% 30.14 in 10.0 mi SSE 6.9 mph - N/A   Scattered Clouds
6:55 PM 60.8 °F - 32.0 °F 34% 30.14 in 10.0 mi South 4.6 mph - N/A Thunderstorm Scattered Clouds
7:15 PM 60.8 °F - 32.0 °F 34% 30.15 in 10.0 mi Calm Calm - N/A   Clear
7:35 PM 59.0 °F - 32.0 °F 36% 30.16 in 10.0 mi SE 3.5 mph - N/A   Clear
7:55 PM 57.2 °F - 32.0 °F 38% 30.17 in 10.0 mi East 3.5 mph - N/A   Clear
8:15 PM 55.4 °F - 30.2 °F 38% 30.18 in 10.0 mi SSE 3.5 mph - N/A   Clear
8:35 PM 50.0 °F - 32.0 °F 50% 30.18 in 10.0 mi Calm Calm - N/A   Clear
8:55 PM 46.4 °F - 33.8 °F 62% 30.19 in 10.0 mi Calm Calm - N/A   Clear
9:15 PM 50.0 °F - 32.0 °F 50% 30.19 in 10.0 mi Calm Calm - N/A   Clear
9:35 PM 44.6 °F - 33.8 °F 66% 30.20 in 10.0 mi Calm Calm - N/A   Clear
9:55 PM 42.8 °F - 33.8 °F 70% 30.21 in 10.0 mi Calm Calm - N/A   Scattered Clouds
10:15 PM 42.8 °F 41.1 °F 33.8 °F 70% 30.22 in 10.0 mi NNE 3.5 mph - N/A   Scattered Clouds
10:35 PM 42.8 °F 39.3 °F 33.8 °F 70% 30.22 in 10.0 mi WSW 5.8 mph - N/A   Clear
10:55 PM 37.4 °F 34.9 °F 33.8 °F 87% 30.22 in 10.0 mi SSW 3.5 mph - N/A   Clear
11:15 PM 39.2 °F 37.0 °F 33.8 °F 81% 30.22 in 10.0 mi ENE 3.5 mph - N/A   Clear
11:35 PM 35.6 °F 31.7 °F 32.0 °F 87% 30.23 in 10.0 mi South 4.6 mph - N/A   Clear
11:55 PM 37.4 °F - 32.0 °F 81% 30.23 in 10.0 mi Calm Calm - N/A   Clear